DW9996 Weather Reports


time (UTC)temp
F
wind
direction
speed
knots
gust
knots
rain 1hr
in
rain 24hr
in
rain mn
in
humidity
%
barometer
mb
20260505051601 34 340 0.0 0.9 0.00 0.00 0.00 56 1016.4
20260505041528 40 340 1.7 4.3 0.00 0.00 0.00 50 1016.0
20260505040025 41 28 2.6 7.0 0.00 0.00 0.00 49 1015.6
20260505034518 42 28 2.6 7.0 0.00 0.00 0.00 47 1015.4
20260505033015 43 43 2.6 10.4 0.00 0.00 0.00 46 1015.4
20260505031515 44 360 6.1 10.4 0.00 0.00 0.00 45 1015.3
20260505030008 44 32 2.6 9.6 0.00 0.00 0.00 44 1015.0
20260505024509 45 5 6.1 12.2 0.00 0.00 0.00 43 1014.8
20260505023003 46 55 7.0 13.0 0.00 0.00 0.00 41 1014.6
20260505021501 47 15 7.8 15.6 0.00 0.00 0.00 38 1014.3
20260505020106 49 53 9.6 17.4 0.00 0.00 0.00 36 1014.0
20260505014557 50 343 8.7 15.6 0.00 0.00 0.00 34 1013.7
20260505013103 51 51 7.0 17.4 0.00 0.00 0.00 33 1013.5
20260505011554 51 347 9.6 20.9 0.00 0.00 0.00 30 1013.2
20260505010109 52 341 9.6 17.4 0.00 0.00 0.00 29 1013.1
20260505004551 53 351 11.3 18.2 0.00 0.00 0.00 28 1013.1
20260505003055 53 42 13.0 21.7 0.00 0.00 0.00 28 1012.9
20260505001549 53 331 10.4 20.9 0.00 0.00 0.00 26 1012.8
20260505000049 54 360 13.0 22.6 0.00 0.00 0.00 25 1012.7
20260504234547 54 306 11.3 26.1 0.00 0.00 0.00 24 1012.6
20260504233102 55 342 11.3 21.7 0.00 0.00 0.00 24 1012.5
20260504231548 54 21 15.6 23.5 0.00 0.00 0.00 25 1012.4
20260504230053 55 343 13.9 23.5 0.00 0.00 0.00 25 1012.2
20260504224542 55 300 13.0 22.6 0.00 0.00 0.00 26 1012.2
20260504223041 54 355 10.4 20.0 0.00 0.00 0.00 25 1012.1
20260504221540 54 336 9.6 18.2 0.00 0.00 0.00 30 1012.1
20260504220039 54 297 7.8 16.5 0.00 0.00 0.00 29 1012.3
20260504214539 52 326 8.7 18.2 0.00 0.00 0.00 31 1012.4
20260504213038 52 312 11.3 21.7 0.00 0.00 0.00 32 1012.5
20260504211539 54 340 11.3 18.2 0.00 0.00 0.00 30 1012.5
20260504210042 54 335 11.3 17.4 0.00 0.00 0.00 31 1012.5
20260504204541 53 307 12.2 19.1 0.00 0.00 0.00 33 1012.5
20260504203051 54 42 9.6 19.1 0.00 0.00 0.00 32 1012.4
20260504201536 52 281 10.4 21.7 0.00 0.00 0.00 34 1012.5
20260504200032 53 19 13.9 21.7 0.00 0.00 0.00 34 1012.4
20260504194534 53 333 9.6 20.9 0.00 0.00 0.00 35 1012.3
20260504193030 54 315 8.7 17.4 0.00 0.00 0.00 35 1012.2
20260504191529 53 303 8.7 20.0 0.00 0.00 0.00 35 1012.2
20260504190029 53 9 12.2 21.7 0.00 0.00 0.00 35 1012.2
20260504184533 53 325 13.0 19.1 0.00 0.00 0.00 35 1012.1
20260504183032 53 347 14.8 21.7 0.00 0.00 0.00 36 1012.0
20260504181526 53 343 11.3 19.1 0.00 0.00 0.00 36 1012.0
20260504180025 53 307 8.7 25.2 0.00 0.00 0.00 37 1012.0
20260504174525 53 315 10.4 18.2 0.00 0.00 0.00 38 1012.0
20260504173024 53 349 8.7 18.2 0.00 0.00 0.00 38 1011.8
20260504171523 52 342 7.8 16.5 0.00 0.00 0.00 41 1011.9
20260504081552 48 78 8.7 15.6 0.00 0.00 0.00 59 1011.4